| time (UTC) | temp F | wind direction | speed MPH | gust MPH | rain 1hr in | rain 24hr in | rain mn in | humidity % | barometer mb |
| 20260902214252 | 59 | 193 | 6.0 | 9.0 | 0.00 | 0.11 | 0.11 | 96 | 1004.3 |
| 20260902213748 | 59 | 77 | 5.0 | 14.0 | 0.00 | 0.11 | 0.11 | 96 | 1004.2 |
| 20260902213248 | 59 | 143 | 10.0 | 16.0 | 0.00 | 0.11 | 0.11 | 96 | 1004.3 |
| 20260902212747 | 59 | 117 | 6.0 | 9.0 | 0.00 | 0.11 | 0.11 | 96 | 1004.3 |
| 20260902212244 | 59 | 187 | 2.0 | 7.0 | 0.05 | 0.11 | 0.11 | 96 | 1004.5 |
| 20260902211740 | 59 | 172 | 3.0 | 10.0 | 0.05 | 0.11 | 0.11 | 95 | 1004.3 |
| 20260902211236 | 59 | 150 | 6.0 | 9.0 | 0.00 | 0.10 | 0.10 | 94 | 1004.1 |
| 20260902210735 | 59 | 145 | 4.0 | 10.0 | 0.00 | 0.10 | 0.10 | 94 | 1004.2 |
| 20260902210231 | 59 | 137 | 2.0 | 13.0 | 0.00 | 0.10 | 0.10 | 94 | 1003.9 |
| 20260902205728 | 59 | 96 | 3.0 | 6.0 | 0.00 | 0.10 | 0.10 | 95 | 1004.0 |
| 20260902205224 | 59 | 90 | 5.0 | 7.0 | 0.00 | 0.10 | 0.10 | 94 | 1004.0 |
| 20260902204719 | 59 | 120 | 7.0 | 10.0 | 0.00 | 0.10 | 0.10 | 94 | 1003.9 |
| 20260902204215 | 58 | 134 | 6.0 | 11.0 | 0.00 | 0.10 | 0.10 | 95 | 1003.9 |
| 20260902203710 | 58 | 94 | 6.0 | 9.0 | 0.00 | 0.10 | 0.10 | 96 | 1004.0 |
| 20260902203209 | 58 | 75 | 2.0 | 8.0 | 0.00 | 0.10 | 0.10 | 96 | 1004.0 |
| 20260902202704 | 59 | 85 | 6.0 | 9.0 | 0.07 | 0.10 | 0.10 | 96 | 1004.1 |
| 20260902202201 | 59 | 119 | 3.0 | 10.0 | 0.07 | 0.10 | 0.10 | 95 | 1004.1 |
| 20260902201657 | 59 | 76 | 4.0 | 16.0 | 0.00 | 0.09 | 0.09 | 94 | 1004.0 |
| 20260902201156 | 59 | 136 | 4.0 | 18.0 | 0.05 | 0.09 | 0.09 | 94 | 1004.5 |
| 20260902200651 | 59 | 95 | 4.0 | 9.0 | 0.05 | 0.09 | 0.09 | 94 | 1004.0 |
| 20260902200147 | 59 | 182 | 3.0 | 7.0 | 0.00 | 0.08 | 0.08 | 93 | 1004.4 |
| 20260902195643 | 59 | 88 | 2.0 | 8.0 | 0.07 | 0.08 | 0.08 | 93 | 1004.3 |
| 20260902195142 | 59 | 348 | 3.0 | 9.0 | 0.07 | 0.08 | 0.08 | 93 | 1004.5 |
| 20260902194641 | 59 | 143 | 6.0 | 9.0 | 0.00 | 0.07 | 0.07 | 93 | 1004.5 |
| 20260902194136 | 59 | 140 | 4.0 | 9.0 | 0.00 | 0.07 | 0.07 | 93 | 1004.4 |
| 20260902193633 | 59 | 75 | 3.0 | 3.0 | 0.00 | 0.07 | 0.07 | 94 | 1004.6 |
| 20260902193132 | 59 | 115 | 5.0 | 7.0 | 0.05 | 0.07 | 0.07 | 94 | 1004.5 |
| 20260902192631 | 59 | 72 | 3.0 | 4.0 | 0.05 | 0.07 | 0.07 | 94 | 1004.4 |
| 20260902192130 | 59 | 170 | 4.0 | 11.0 | 0.00 | 0.06 | 0.06 | 94 | 1004.8 |
| 20260902191626 | 59 | 154 | 1.0 | 7.0 | 0.07 | 0.06 | 0.06 | 94 | 1004.5 |
| 20260902191125 | 59 | 156 | 3.0 | 7.0 | 0.07 | 0.06 | 0.06 | 94 | 1004.6 |
| 20260902190621 | 59 | 43 | 4.0 | 8.0 | 0.00 | 0.05 | 0.05 | 94 | 1004.5 |
| 20260902190116 | 59 | 88 | 3.0 | 7.0 | 0.00 | 0.05 | 0.05 | 95 | 1004.8 |
| 20260902185612 | 59 | 45 | 3.0 | 4.0 | 0.05 | 0.05 | 0.05 | 95 | 1004.9 |
| 20260902185108 | 60 | 131 | 3.0 | 6.0 | 0.05 | 0.05 | 0.05 | 94 | 1005.2 |
| 20260902184603 | 60 | 78 | 1.0 | 3.0 | 0.07 | 0.04 | 0.04 | 95 | 1004.9 |
| 20260902184057 | 60 | 111 | 2.0 | 9.0 | 0.07 | 0.04 | 0.04 | 93 | 1005.1 |
| 20260902183554 | 60 | 123 | 4.0 | 6.0 | 0.00 | 0.03 | 0.03 | 94 | 1005.2 |
| 20260902183050 | 60 | 178 | 4.0 | 7.0 | 0.00 | 0.03 | 0.03 | 94 | 1005.2 |
| 20260902182546 | 60 | 73 | 1.0 | 4.0 | 0.05 | 0.03 | 0.03 | 94 | 1005.2 |
| 20260902182043 | 60 | 90 | 1.0 | 3.0 | 0.05 | 0.03 | 0.03 | 95 | 1005.4 |
| 20260902181538 | 60 | 91 | 2.0 | 3.0 | 0.00 | 0.02 | 0.02 | 95 | 1005.4 |
| 20260902181037 | 60 | 85 | 1.0 | 4.0 | 0.00 | 0.02 | 0.02 | 94 | 1005.6 |
| 20260902180532 | 60 | 138 | 2.0 | 4.0 | 0.07 | 0.02 | 0.02 | 94 | 1005.6 |
| 20260902180028 | 60 | 155 | 1.0 | 4.0 | 0.07 | 0.02 | 0.02 | 94 | 1005.5 |
| 20260902175528 | 60 | 40 | 3.0 | 4.0 | 0.00 | 0.01 | 0.01 | 93 | 1005.7 |
| 20260902175024 | 60 | 98 | 0.0 | 2.0 | 0.00 | 0.01 | 0.01 | 94 | 1005.7 |
| 20260902174520 | 60 | 96 | 2.0 | 3.0 | 0.00 | 0.01 | 0.01 | 93 | 1005.5 |
| 20260902174015 | 60 | 140 | 1.0 | 3.0 | 0.07 | 0.01 | 0.01 | 92 | 1005.7 |
| 20260902173515 | 60 | 88 | 3.0 | 4.0 | 0.07 | 0.01 | 0.01 | 90 | 1005.6 |
| 20260902173015 | 61 | 156 | 3.0 | 4.0 | 0.00 | 0.00 | 0.00 | 89 | 1005.7 |
| 20260902172515 | 61 | 173 | 2.0 | 3.0 | 0.00 | 0.00 | 0.00 | 88 | 1005.6 |
| 20260902172010 | 61 | 98 | 1.0 | 3.0 | 0.00 | 0.00 | 0.00 | 87 | 1005.5 |
| 20260902171506 | 61 | 161 | 3.0 | 3.0 | 0.00 | 0.00 | 0.00 | 87 | 1005.6 |
| 20260902171002 | 62 | 70 | 2.0 | 6.0 | 0.00 | 0.00 | 0.00 | 86 | 1005.6 |
| 20260902170456 | 62 | 123 | 3.0 | 3.0 | 0.00 | 0.00 | 0.00 | 86 | 1005.4 |
| 20260902165952 | 62 | 61 | 1.0 | 3.0 | 0.00 | 0.00 | 0.00 | 86 | 1005.4 |
| 20260902165451 | 62 | 109 | 2.0 | 3.0 | 0.00 | 0.00 | 0.00 | 86 | 1005.3 |
| 20260902164946 | 62 | 107 | 5.0 | 8.0 | 0.00 | 0.00 | 0.00 | 85 | 1005.6 |
| 20260902164441 | 62 | 102 | 2.0 | 6.0 | 0.00 | 0.00 | 0.00 | 84 | 1005.5 |
| 20260902163940 | 62 | 149 | 0.0 | 8.0 | 0.00 | 0.00 | 0.00 | 83 | 1005.5 |
| 20260902163436 | 62 | 134 | 4.0 | 9.0 | 0.00 | 0.00 | 0.00 | 82 | 1005.5 |
| 20260902162933 | 62 | 142 | 2.0 | 4.0 | 0.00 | 0.00 | 0.00 | 82 | 1005.4 |
| 20260902162429 | 63 | 184 | 6.0 | 10.0 | 0.00 | 0.00 | 0.00 | 82 | 1005.7 |
| 20260902161928 | 63 | 99 | 1.0 | 2.0 | 0.00 | 0.00 | 0.00 | 81 | 1005.6 |
| 20260902161424 | 63 | 99 | 1.0 | 4.0 | 0.00 | 0.00 | 0.00 | 80 | 1005.5 |
| 20260902160920 | 63 | 146 | 3.0 | 4.0 | 0.00 | 0.00 | 0.00 | 80 | 1005.5 |
| 20260902160415 | 63 | 114 | 4.0 | 6.0 | 0.00 | 0.00 | 0.00 | 80 | 1005.7 |
| 20260902155913 | 63 | 92 | 1.0 | 6.0 | 0.00 | 0.00 | 0.00 | 80 | 1005.5 |
| 20260902155408 | 63 | 152 | 1.0 | 4.0 | 0.00 | 0.00 | 0.00 | 80 | 1005.6 |
| 20260902154902 | 63 | 117 | 2.0 | 3.0 | 0.00 | 0.00 | 0.00 | 80 | 1005.6 |
| 20260902154358 | 63 | 92 | 1.0 | 3.0 | 0.00 | 0.00 | 0.00 | 81 | 1005.7 |
| 20260902153857 | 63 | 125 | 1.0 | 4.0 | 0.00 | 0.00 | 0.00 | 80 | 1005.6 |
| 20260902153356 | 63 | 91 | 2.0 | 4.0 | 0.00 | 0.00 | 0.00 | 80 | 1005.6 |
| 20260902152852 | 62 | 178 | 2.0 | 3.0 | 0.00 | 0.00 | 0.00 | 81 | 1005.8 |
| 20260902152348 | 62 | 156 | 3.0 | 4.0 | 0.00 | 0.00 | 0.00 | 81 | 1005.6 |
| 20260902151843 | 62 | 60 | 1.0 | 3.0 | 0.00 | 0.00 | 0.00 | 82 | 1005.9 |
| 20260902151339 | 62 | 84 | 3.0 | 6.0 | 0.00 | 0.00 | 0.00 | 82 | 1006.0 |
| 20260902150839 | 62 | 60 | 2.0 | 4.0 | 0.00 | 0.00 | 0.00 | 83 | 1006.1 |
| 20260902150335 | 61 | 99 | 3.0 | 4.0 | 0.00 | 0.00 | 0.00 | 83 | 1006.0 |
| 20260902145834 | 61 | 130 | 1.0 | 6.0 | 0.00 | 0.00 | 0.00 | 84 | 1006.2 |
| 20260902145330 | 61 | 120 | 2.0 | 3.0 | 0.00 | 0.00 | 0.00 | 84 | 1006.3 |
| 20260902144825 | 61 | 109 | 2.0 | 4.0 | 0.00 | 0.00 | 0.00 | 84 | 1006.3 |
| 20260902144322 | 61 | 78 | 2.0 | 6.0 | 0.00 | 0.00 | 0.00 | 84 | 1006.3 |
| 20260902143816 | 60 | 129 | 2.0 | 3.0 | 0.00 | 0.00 | 0.00 | 85 | 1006.3 |
| 20260902143311 | 60 | 73 | 0.0 | 2.0 | 0.00 | 0.00 | 0.00 | 86 | 1006.4 |
| 20260902142807 | 60 | 160 | 0.0 | 0.0 | 0.00 | 0.00 | 0.00 | 86 | 1006.4 |
| 20260902142305 | 60 | 72 | 0.0 | 2.0 | 0.00 | 0.00 | 0.00 | 86 | 1006.6 |
| 20260902141802 | 60 | 68 | 0.0 | 2.0 | 0.00 | 0.00 | 0.00 | 87 | 1006.3 |
| 20260902141258 | 60 | 107 | 0.0 | 1.0 | 0.00 | 0.00 | 0.00 | 88 | 1006.5 |
| 20260902140758 | 60 | 77 | 0.0 | 2.0 | 0.00 | 0.00 | 0.00 | 87 | 1006.4 |
| 20260902140253 | 60 | 50 | 0.0 | 2.0 | 0.00 | 0.00 | 0.00 | 88 | 1006.7 |
| 20260902135752 | 60 | 55 | 0.0 | 1.0 | 0.00 | 0.00 | 0.00 | 88 | 1006.8 |
| 20260902135248 | 60 | 90 | 0.0 | 0.0 | 0.00 | 0.00 | 0.00 | 89 | 1007.1 |
| 20260902134748 | 59 | 89 | 0.0 | 2.0 | 0.00 | 0.00 | 0.00 | 89 | 1007.3 |
| 20260902134243 | 60 | 153 | 0.0 | 0.0 | 0.00 | 0.00 | 0.00 | 89 | 1007.0 |
| 20260902133739 | 60 | 31 | 1.0 | 2.0 | 0.00 | 0.00 | 0.00 | 89 | 1007.2 |
| 20260902133238 | 60 | 69 | 0.0 | 0.0 | 0.00 | 0.00 | 0.00 | 88 | 1007.1 |
| 20260902132733 | 60 | 91 | 1.0 | 2.0 | 0.00 | 0.00 | 0.00 | 88 | 1007.2 |
| 20260902132229 | 60 | 124 | 1.0 | 2.0 | 0.00 | 0.00 | 0.00 | 88 | 1007.1 |
| 20260902131724 | 60 | 62 | 0.0 | 1.0 | 0.00 | 0.00 | 0.00 | 88 | 1007.3 |
| 20260902131220 | 60 | 46 | 1.0 | 2.0 | 0.00 | 0.00 | 0.00 | 88 | 1007.5 |
| 20260902130720 | 60 | 125 | 1.0 | 2.0 | 0.00 | 0.00 | 0.00 | 88 | 1007.4 |
| 20260902130216 | 60 | 59 | 0.0 | 2.0 | 0.00 | 0.00 | 0.00 | 89 | 1007.4 |
| 20260902125711 | 60 | 61 | 1.0 | 3.0 | 0.00 | 0.00 | 0.00 | 89 | 1007.5 |
| 20260902125208 | 60 | 74 | 2.0 | 3.0 | 0.00 | 0.00 | 0.00 | 89 | 1007.6 |
| 20260902124704 | 60 | 74 | 1.0 | 2.0 | 0.00 | 0.00 | 0.00 | 90 | 1007.8 |
| 20260902124204 | 60 | 114 | 0.0 | 2.0 | 0.00 | 0.00 | 0.00 | 90 | 1007.6 |
| 20260902123659 | 60 | 56 | 0.0 | 1.0 | 0.00 | 0.00 | 0.00 | 89 | 1007.7 |
| 20260902123155 | 60 | 128 | 0.0 | 4.0 | 0.00 | 0.00 | 0.00 | 87 | 1007.9 |
| 20260902122654 | 60 | 137 | 0.0 | 3.0 | 0.00 | 0.00 | 0.00 | 88 | 1008.0 |
| 20260902122150 | 60 | 141 | 0.0 | 6.0 | 0.00 | 0.00 | 0.00 | 88 | 1007.9 |
| 20260902121644 | 60 | 96 | 2.0 | 4.0 | 0.00 | 0.00 | 0.00 | 90 | 1007.9 |
| 20260902121139 | 60 | 119 | 0.0 | 0.0 | 0.00 | 0.00 | 0.00 | 91 | 1008.0 |
| 20260902120635 | 60 | 134 | 1.0 | 2.0 | 0.00 | 0.00 | 0.00 | 90 | 1008.0 |
| 20260902120132 | 60 | 172 | 1.0 | 4.0 | 0.00 | 0.00 | 0.00 | 91 | 1008.2 |
| 20260902115625 | 60 | 150 | 0.0 | 2.0 | 0.00 | 0.00 | 0.00 | 91 | 1007.9 |
| 20260902115122 | 60 | 82 | 3.0 | 3.0 | 0.00 | 0.00 | 0.00 | 91 | 1008.0 |
| 20260902114618 | 60 | 147 | 2.0 | 3.0 | 0.00 | 0.00 | 0.00 | 91 | 1008.2 |
| 20260902114117 | 60 | 100 | 2.0 | 3.0 | 0.00 | 0.00 | 0.00 | 92 | 1008.1 |
| 20260902113614 | 60 | 91 | 0.0 | 1.0 | 0.00 | 0.00 | 0.00 | 92 | 1008.2 |
| 20260902113114 | 60 | 100 | 0.0 | 1.0 | 0.00 | 0.00 | 0.00 | 92 | 1008.1 |
| 20260902112609 | 60 | 84 | 0.0 | 1.0 | 0.00 | 0.00 | 0.00 | 91 | 1008.2 |
| 20260902112106 | 60 | 110 | 2.0 | 6.0 | 0.00 | 0.00 | 0.00 | 90 | 1008.2 |
| 20260902111601 | 60 | 143 | 3.0 | 7.0 | 0.00 | 0.00 | 0.00 | 90 | 1008.3 |
| 20260902111057 | 60 | 166 | 2.0 | 6.0 | 0.00 | 0.00 | 0.00 | 90 | 1008.4 |
| 20260902110553 | 59 | 130 | 3.0 | 6.0 | 0.00 | 0.00 | 0.00 | 91 | 1008.5 |
| 20260902110049 | 59 | 150 | 0.0 | 4.0 | 0.00 | 0.00 | 0.00 | 93 | 1008.5 |
| 20260902105543 | 59 | 133 | 0.0 | 0.0 | 0.00 | 0.00 | 0.00 | 94 | 1008.4 |
| 20260902105043 | 59 | 96 | 0.0 | 0.0 | 0.00 | 0.00 | 0.00 | 94 | 1008.7 |
| 20260902104539 | 59 | 66 | 0.0 | 0.0 | 0.00 | 0.00 | 0.00 | 94 | 1008.6 |
| 20260902104038 | 58 | 112 | 0.0 | 1.0 | 0.00 | 0.00 | 0.00 | 95 | 1008.5 |
| 20260902103534 | 58 | 76 | 0.0 | 1.0 | 0.00 | 0.00 | 0.00 | 95 | 1008.6 |
| 20260902103029 | 58 | 77 | 0.0 | 1.0 | 0.00 | 0.00 | 0.00 | 95 | 1008.5 |
| 20260902102526 | 58 | 112 | 0.0 | 2.0 | 0.00 | 0.00 | 0.00 | 95 | 1008.5 |
| 20260902102023 | 58 | 74 | 0.0 | 1.0 | 0.00 | 0.00 | 0.00 | 95 | 1008.5 |
| 20260902101518 | 58 | 123 | 0.0 | 1.0 | 0.00 | 0.00 | 0.00 | 95 | 1008.5 |
| 20260902101016 | 58 | 161 | 0.0 | 2.0 | 0.00 | 0.00 | 0.00 | 95 | 1008.7 |
| 20260902100512 | 58 | 82 | 1.0 | 2.0 | 0.00 | 0.00 | 0.00 | 96 | 1008.7 |
| 20260902100012 | 58 | 105 | 0.0 | 2.0 | 0.00 | 0.00 | 0.00 | 97 | 1008.8 |
| 20260902095511 | 57 | 85 | 0.0 | 1.0 | 0.00 | 0.00 | 0.00 | 99 | 1008.6 |
| 20260902095010 | 57 | 131 | 1.0 | 2.0 | 0.00 | 0.00 | 0.00 | 99 | 1008.8 |
| 20260902094506 | 57 | 88 | 0.0 | 0.0 | 0.00 | 0.00 | 0.00 | 99 | 1008.9 |
| 20260902094001 | 58 | 131 | 0.0 | 0.0 | 0.00 | 0.00 | 0.00 | 99 | 1008.9 |
| 20260902093456 | 58 | 97 | 0.0 | 0.0 | 0.00 | 0.00 | 0.00 | 99 | 1008.8 |
| 20260902092955 | 58 | 87 | 0.0 | 0.0 | 0.00 | 0.00 | 0.00 | 99 | 1009.1 |
| 20260902092451 | 58 | 91 | 0.0 | 0.0 | 0.00 | 0.00 | 0.00 | 99 | 1009.1 |
| 20260902091950 | 58 | 58 | 0.0 | 2.0 | 0.00 | 0.00 | 0.00 | 99 | 1009.0 |
| 20260902091446 | 57 | 104 | 0.0 | 0.0 | 0.00 | 0.00 | 0.00 | 99 | 1009.1 |
| 20260902090942 | 57 | 87 | 0.0 | 0.0 | 0.00 | 0.00 | 0.00 | 99 | 1009.2 |
| 20260902090437 | 57 | 123 | 0.0 | 0.0 | 0.00 | 0.00 | 0.00 | 99 | 1009.1 |
| 20260902085936 | 57 | 133 | 0.0 | 0.0 | 0.00 | 0.00 | 0.00 | 99 | 1009.3 |
| 20260902085431 | 57 | 131 | 0.0 | 0.0 | 0.00 | 0.00 | 0.00 | 99 | 1009.3 |
| 20260902084926 | 57 | 131 | 0.0 | 0.0 | 0.00 | 0.00 | 0.00 | 99 | 1009.5 |
| 20260902084423 | 57 | 131 | 0.0 | 0.0 | 0.00 | 0.00 | 0.00 | 99 | 1009.4 |
| 20260902083919 | 57 | 131 | 0.0 | 0.0 | 0.00 | 0.00 | 0.00 | 99 | 1009.5 |
| 20260902083418 | 57 | 131 | 0.0 | 0.0 | 0.00 | 0.00 | 0.00 | 99 | 1009.4 |
| 20260902082913 | 56 | 131 | 0.0 | 0.0 | 0.00 | 0.00 | 0.00 | 99 | 1009.6 |
| 20260902082409 | 56 | 131 | 0.0 | 0.0 | 0.00 | 0.00 | 0.00 | 99 | 1009.6 |
| 20260902081906 | 56 | 133 | 0.0 | 0.0 | 0.00 | 0.00 | 0.00 | 99 | 1009.7 |
| 20260902081401 | 56 | 164 | 0.0 | 0.0 | 0.00 | 0.00 | 0.00 | 99 | 1009.6 |
| 20260902080856 | 56 | 192 | 0.0 | 0.0 | 0.00 | 0.00 | 0.00 | 99 | 1009.4 |
| 20260902080353 | 56 | 182 | 0.0 | 0.0 | 0.00 | 0.00 | 0.00 | 99 | 1009.5 |
| 20260902075852 | 55 | 126 | 0.0 | 0.0 | 0.00 | 0.00 | 0.00 | 99 | 1009.7 |
| 20260902075348 | 55 | 124 | 0.0 | 0.0 | 0.00 | 0.00 | 0.00 | 99 | 1009.7 |
| 20260902074843 | 55 | 124 | 0.0 | 0.0 | 0.00 | 0.00 | 0.00 | 99 | 1009.8 |
| 20260902074339 | 55 | 124 | 0.0 | 0.0 | 0.00 | 0.00 | 0.00 | 99 | 1009.9 |
| 20260902073833 | 55 | 124 | 0.0 | 0.0 | 0.00 | 0.00 | 0.00 | 99 | 1009.8 |
| 20260902073330 | 55 | 124 | 0.0 | 0.0 | 0.00 | 0.00 | 0.00 | 99 | 1009.8 |
| 20260902072826 | 55 | 124 | 0.0 | 0.0 | 0.00 | 0.00 | 0.00 | 99 | 1009.9 |
| 20260902072321 | 55 | 129 | 0.0 | 0.0 | 0.00 | 0.00 | 0.00 | 99 | 1009.9 |
| 20260902071817 | 56 | 129 | 0.0 | 0.0 | 0.00 | 0.00 | 0.00 | 99 | 1010.0 |
| 20260902071312 | 56 | 129 | 0.0 | 0.0 | 0.00 | 0.00 | 0.00 | 99 | 1009.9 |
| 20260902070808 | 55 | 129 | 0.0 | 0.0 | 0.00 | 0.00 | 0.00 | 99 | 1009.9 |
| 20260902070308 | 55 | 129 | 0.0 | 0.0 | 0.00 | 0.00 | 0.00 | 99 | 1009.8 |
| 20260902065807 | 54 | 129 | 0.0 | 0.0 | 0.00 | 0.00 | 0.00 | 99 | 1009.9 |
| 20260902065306 | 54 | 129 | 0.0 | 0.0 | 0.00 | 0.00 | 0.00 | 99 | 1010.0 |
| 20260902064758 | 54 | 129 | 0.0 | 0.0 | 0.00 | 0.00 | 0.00 | 99 | 1010.1 |
| 20260902064253 | 54 | 129 | 0.0 | 0.0 | 0.00 | 0.00 | 0.00 | 99 | 1010.0 |
| 20260902063749 | 54 | 128 | 0.0 | 0.0 | 0.00 | 0.00 | 0.00 | 99 | 1009.9 |
| 20260902063243 | 54 | 131 | 0.0 | 0.0 | 0.00 | 0.00 | 0.00 | 99 | 1009.9 |
| 20260902062743 | 54 | 131 | 0.0 | 0.0 | 0.00 | 0.00 | 0.00 | 99 | 1009.9 |
| 20260902062238 | 54 | 131 | 0.0 | 0.0 | 0.00 | 0.00 | 0.00 | 99 | 1009.9 |
| 20260902061737 | 54 | 131 | 0.0 | 0.0 | 0.00 | 0.00 | 0.00 | 99 | 1009.7 |
| 20260902061232 | 54 | 131 | 0.0 | 0.0 | 0.00 | 0.00 | 0.00 | 99 | 1009.9 |
| 20260902060730 | 55 | 131 | 0.0 | 0.0 | 0.00 | 0.00 | 0.00 | 99 | 1010.0 |
| 20260902060225 | 55 | 131 | 0.0 | 0.0 | 0.00 | 0.00 | 0.00 | 99 | 1010.0 |
| 20260902055720 | 55 | 131 | 0.0 | 0.0 | 0.00 | 0.00 | 0.00 | 99 | 1010.0 |
| 20260902055216 | 55 | 131 | 0.0 | 0.0 | 0.00 | 0.00 | 0.00 | 99 | 1009.9 |
| 20260902054711 | 55 | 131 | 0.0 | 0.0 | 0.00 | 0.00 | 0.00 | 99 | 1010.0 |
| 20260902054207 | 55 | 131 | 0.0 | 0.0 | 0.00 | 0.00 | 0.00 | 99 | 1010.2 |
| 20260902053702 | 55 | 131 | 0.0 | 0.0 | 0.00 | 0.00 | 0.00 | 99 | 1010.1 |
| 20260902053202 | 56 | 131 | 0.0 | 0.0 | 0.00 | 0.00 | 0.00 | 99 | 1010.3 |
| 20260902052701 | 56 | 131 | 0.0 | 0.0 | 0.00 | 0.00 | 0.00 | 99 | 1010.2 |
| 20260902052157 | 57 | 131 | 0.0 | 0.0 | 0.00 | 0.00 | 0.00 | 99 | 1010.1 |
| 20260902051655 | 56 | 129 | 0.0 | 0.0 | 0.00 | 0.00 | 0.00 | 99 | 1010.3 |
| 20260902051150 | 57 | 148 | 0.0 | 0.0 | 0.00 | 0.00 | 0.00 | 99 | 1010.4 |
| 20260902050645 | 57 | 167 | 0.0 | 0.0 | 0.00 | 0.00 | 0.00 | 99 | 1010.6 |
| 20260902050141 | 57 | 166 | 0.0 | 0.0 | 0.00 | 0.00 | 0.00 | 99 | 1010.3 |
| 20260902045635 | 57 | 131 | 0.0 | 0.0 | 0.00 | 0.00 | 0.00 | 99 | 1010.4 |
| 20260902045132 | 57 | 131 | 0.0 | 0.0 | 0.00 | 0.00 | 0.00 | 99 | 1010.5 |
| 20260902044632 | 57 | 131 | 0.0 | 0.0 | 0.00 | 0.00 | 0.00 | 98 | 1010.3 |
| 20260902044128 | 58 | 131 | 0.0 | 0.0 | 0.00 | 0.00 | 0.00 | 98 | 1010.3 |
| 20260902043623 | 58 | 130 | 0.0 | 0.0 | 0.00 | 0.00 | 0.00 | 98 | 1010.4 |
| 20260902043118 | 59 | 128 | 0.0 | 0.0 | 0.00 | 0.00 | 0.00 | 98 | 1010.6 |
| 20260902042617 | 59 | 137 | 0.0 | 0.0 | 0.00 | 0.00 | 0.00 | 98 | 1010.5 |
| 20260902042113 | 59 | 137 | 0.0 | 0.0 | 0.00 | 0.00 | 0.00 | 97 | 1010.8 |
| 20260902041612 | 59 | 137 | 0.0 | 0.0 | 0.00 | 0.00 | 0.00 | 98 | 1010.5 |
| 20260902041108 | 59 | 137 | 0.0 | 0.0 | 0.00 | 0.00 | 0.00 | 98 | 1010.6 |
| 20260902040608 | 59 | 138 | 0.0 | 0.0 | 0.00 | 0.00 | 0.00 | 97 | 1010.5 |
| 20260902035601 | 60 | 116 | 0.0 | 0.0 | 0.00 | 0.00 | 0.00 | 97 | 1010.4 |
| 20260902035056 | 60 | 106 | 0.0 | 0.0 | 0.00 | 0.00 | 0.00 | 97 | 1010.5 |
| 20260902034555 | 60 | 142 | 0.0 | 0.0 | 0.00 | 0.00 | 0.00 | 97 | 1010.7 |
| 20260902034055 | 60 | 173 | 0.0 | 0.0 | 0.00 | 0.00 | 0.00 | 97 | 1010.6 |
| 20260902033554 | 60 | 249 | 0.0 | 0.0 | 0.00 | 0.00 | 0.00 | 97 | 1010.5 |
| 20260902033049 | 60 | 251 | 0.0 | 0.0 | 0.00 | 0.00 | 0.00 | 97 | 1010.5 |
| 20260902032548 | 60 | 288 | 0.0 | 0.0 | 0.00 | 0.00 | 0.00 | 97 | 1010.2 |
| 20260902032043 | 60 | 275 | 0.0 | 0.0 | 0.00 | 0.00 | 0.00 | 96 | 1010.4 |
| 20260902031538 | 60 | 52 | 0.0 | 0.0 | 0.00 | 0.00 | 0.00 | 96 | 1010.4 |
| 20260902031034 | 60 | 86 | 0.0 | 0.0 | 0.00 | 0.00 | 0.00 | 96 | 1010.6 |
| 20260902030529 | 60 | 117 | 0.0 | 0.0 | 0.00 | 0.00 | 0.00 | 96 | 1010.4 |
| 20260902030028 | 60 | 97 | 1.0 | 1.0 | 0.00 | 0.00 | 0.00 | 95 | 1010.4 |
| 20260902025529 | 60 | 187 | 0.0 | 0.0 | 0.00 | 0.00 | 0.00 | 95 | 1010.5 |
| 20260902025024 | 60 | 72 | 0.0 | 0.0 | 0.00 | 0.00 | 0.00 | 95 | 1010.6 |
| 20260902024520 | 61 | 170 | 1.0 | 2.0 | 0.00 | 0.00 | 0.00 | 95 | 1010.3 |
| 20260902024019 | 61 | 43 | 1.0 | 2.0 | 0.00 | 0.00 | 0.00 | 95 | 1010.2 |
| 20260902023515 | 61 | 144 | 1.0 | 2.0 | 0.00 | 0.00 | 0.00 | 96 | 1010.2 |
| 20260902023016 | 62 | 65 | 2.0 | 2.0 | 0.00 | 0.00 | 0.00 | 95 | 1010.4 |
| 20260902022515 | 62 | 114 | 0.0 | 2.0 | 0.00 | 0.00 | 0.00 | 95 | 1010.5 |
| 20260902022012 | 62 | 83 | 0.0 | 0.0 | 0.00 | 0.00 | 0.00 | 95 | 1010.3 |
| 20260902021507 | 62 | 166 | 0.0 | 0.0 | 0.00 | 0.00 | 0.00 | 95 | 1010.2 |
| 20260902021002 | 62 | 107 | 0.0 | 0.0 | 0.00 | 0.00 | 0.00 | 95 | 1010.4 |
| 20260902020458 | 62 | 106 | 0.0 | 0.0 | 0.00 | 0.00 | 0.00 | 95 | 1010.5 |
| 20260902015953 | 62 | 106 | 0.0 | 0.0 | 0.00 | 0.00 | 0.00 | 95 | 1010.3 |
| 20260902015449 | 62 | 67 | 0.0 | 0.0 | 0.00 | 0.00 | 0.00 | 94 | 1010.3 |
| 20260902014944 | 62 | 147 | 0.0 | 0.0 | 0.00 | 0.00 | 0.00 | 93 | 1010.3 |
| 20260902014441 | 62 | 147 | 0.0 | 0.0 | 0.00 | 0.00 | 0.00 | 93 | 1010.3 |
| 20260902013939 | 62 | 138 | 0.0 | 0.0 | 0.00 | 0.00 | 0.00 | 93 | 1010.3 |
| 20260902013435 | 62 | 171 | 0.0 | 0.0 | 0.00 | 0.00 | 0.00 | 93 | 1010.2 |
| 20260902012930 | 62 | 244 | 0.0 | 0.0 | 0.00 | 0.00 | 0.00 | 93 | 1010.2 |
| 20260902012426 | 62 | 313 | 0.0 | 0.0 | 0.00 | 0.00 | 0.00 | 93 | 1010.0 |
| 20260902011922 | 62 | 277 | 0.0 | 1.0 | 0.00 | 0.00 | 0.00 | 93 | 1010.5 |
| 20260902011416 | 62 | 244 | 0.0 | 0.0 | 0.00 | 0.00 | 0.00 | 92 | 1010.4 |
| 20260902010916 | 62 | 242 | 0.0 | 0.0 | 0.00 | 0.00 | 0.00 | 92 | 1010.3 |
| 20260902010411 | 62 | 279 | 0.0 | 0.0 | 0.00 | 0.00 | 0.00 | 92 | 1010.1 |
| 20260902005910 | 62 | 257 | 0.0 | 0.0 | 0.00 | 0.00 | 0.00 | 92 | 1010.2 |
| 20260902005409 | 62 | 261 | 0.0 | 0.0 | 0.00 | 0.00 | 0.00 | 92 | 1010.1 |
| 20260902004906 | 62 | 264 | 0.0 | 0.0 | 0.00 | 0.00 | 0.00 | 93 | 1010.2 |
| 20260902004405 | 62 | 164 | 0.0 | 0.0 | 0.00 | 0.00 | 0.00 | 93 | 1010.2 |
| 20260902003901 | 62 | 251 | 0.0 | 1.0 | 0.00 | 0.00 | 0.00 | 93 | 1010.3 |
| 20260902003401 | 62 | 339 | 0.0 | 0.0 | 0.00 | 0.00 | 0.00 | 93 | 1010.2 |
| 20260902002857 | 62 | 263 | 0.0 | 0.0 | 0.00 | 0.00 | 0.00 | 93 | 1010.2 |
| 20260902002356 | 63 | 279 | 0.0 | 3.0 | 0.00 | 0.00 | 0.00 | 92 | 1010.0 |
| 20260902001852 | 63 | 303 | 1.0 | 3.0 | 0.00 | 0.00 | 0.00 | 91 | 1010.2 |
| 20260902001347 | 63 | 252 | 2.0 | 2.0 | 0.00 | 0.00 | 0.00 | 89 | 1010.1 |
| 20260902000842 | 63 | 273 | 0.0 | 1.0 | 0.00 | 0.00 | 0.00 | 90 | 1010.1 |
| 20260902000342 | 64 | 276 | 1.0 | 3.0 | 0.00 | 0.00 | 0.00 | 88 | 1010.1 |
| 20260901235837 | 65 | 315 | 2.0 | 3.0 | 0.00 | 0.00 | 0.00 | 87 | 1010.2 |
| 20260901235336 | 65 | 310 | 2.0 | 3.0 | 0.00 | 0.00 | 0.00 | 88 | 1010.2 |
| 20260901234832 | 66 | 289 | 2.0 | 3.0 | 0.00 | 0.00 | 0.00 | 86 | 1010.1 |
| 20260901234332 | 66 | 237 | 1.0 | 2.0 | 0.00 | 0.00 | 0.00 | 83 | 1010.4 |
| 20260901233827 | 65 | 44 | 2.0 | 2.0 | 0.00 | 0.00 | 0.00 | 85 | 1010.3 |
| 20260901233322 | 65 | 64 | 2.0 | 3.0 | 0.00 | 0.00 | 0.00 | 85 | 1010.1 |
| 20260901232818 | 65 | 74 | 0.0 | 2.0 | 0.00 | 0.00 | 0.00 | 86 | 1010.1 |
| 20260901232313 | 65 | 91 | 2.0 | 6.0 | 0.00 | 0.00 | 0.00 | 85 | 1010.2 |
| 20260901231809 | 66 | 100 | 1.0 | 6.0 | 0.00 | 0.00 | 0.00 | 84 | 1010.0 |
| 20260901231305 | 66 | 83 | 1.0 | 2.0 | 0.00 | 0.00 | 0.00 | 81 | 1010.3 |
| 20260901230802 | 66 | 59 | 1.0 | 3.0 | 0.00 | 0.00 | 0.00 | 80 | 1010.3 |
| 20260901230300 | 66 | 76 | 2.0 | 4.0 | 0.00 | 0.00 | 0.00 | 81 | 1010.4 |
| 20260901225756 | 67 | 195 | 0.0 | 2.0 | 0.00 | 0.00 | 0.00 | 77 | 1010.2 |
| 20260901225250 | 66 | 205 | 0.0 | 2.0 | 0.00 | 0.00 | 0.00 | 78 | 1010.3 |
| 20260901224746 | 67 | 218 | 0.0 | 1.0 | 0.00 | 0.00 | 0.00 | 79 | 1010.4 |
| 20260901224242 | 67 | 61 | 0.0 | 2.0 | 0.00 | 0.00 | 0.00 | 80 | 1010.4 |
| 20260901223738 | 66 | 95 | 0.0 | 2.0 | 0.00 | 0.00 | 0.00 | 80 | 1010.4 |
| 20260901223238 | 66 | 169 | 0.0 | 0.0 | 0.00 | 0.00 | 0.00 | 80 | 1010.3 |
| 20260901222734 | 66 | 164 | 0.0 | 2.0 | 0.00 | 0.00 | 0.00 | 81 | 1010.3 |
| 20260901222230 | 66 | 78 | 1.0 | 4.0 | 0.00 | 0.00 | 0.00 | 81 | 1010.1 |
| 20260901221726 | 66 | 112 | 1.0 | 4.0 | 0.00 | 0.00 | 0.00 | 81 | 1010.3 |
| 20260901221222 | 66 | 32 | 4.0 | 4.0 | 0.00 | 0.00 | 0.00 | 81 | 1010.3 |
| 20260901220720 | 66 | 191 | 0.0 | 4.0 | 0.00 | 0.00 | 0.00 | 81 | 1010.1 |
| 20260901220215 | 66 | 86 | 3.0 | 3.0 | 0.00 | 0.00 | 0.00 | 82 | 1010.2 |
| 20260901215714 | 65 | 40 | 2.0 | 4.0 | 0.00 | 0.00 | 0.00 | 82 | 1010.2 |
| 20260901215213 | 66 | 76 | 2.0 | 4.0 | 0.00 | 0.00 | 0.00 | 82 | 1009.9 |
| 20260901214712 | 66 | 116 | 1.0 | 3.0 | 0.00 | 0.00 | 0.00 | 82 | 1010.2 |